Location: Cogollal
(10.0582°N, 67.8466°W)
Time: 20:03:25
(UTC+00:00)

Cosmos 1470 Rocket - Pass Details

Date: 14 April 2024
Orbit: 601 x 629 km, 82.5° (Epoch: 18 May)

Event Time Altitude Azimuth Distance (km) Brightness Sun altitude
Rises 09:32:58 0° 340° (NNW) 2,886 6.9 -12.5°
Reaches altitude 10° 09:35:22 10° 330° (NNW) 1,986 6.0 -11.9°
Maximum altitude 09:39:16 31° 267° (W) 1,089 4.3 -11.0°
Drops below altitude 10° 09:43:11 10° 205° (SSW) 1,998 5.8 -10.0°
Sets 09:45:37 0° 195° (SSW) 2,907 6.7 -9.4°
